EWS-G1 (GOES 13)

Last updated on Jan. 23, 2021, 7:08 a.m. UTC

1 29155U 06018A   21022.86193757  .00000049  00000-0  00000-0 0  9993
2 29155   0.3778 103.8649 0006400 134.3384 256.0026  1.00274433 23602
UTC
Height (km)
Latitude
Longitude
Inclination
Orbital Period
UTC large
Height (km)
Speed (km/s)
/
Latitude / Longitude
Inclination (degrees)
Orbital Period (minutes)
Azimuth
Elevation
Range (km)
Doppler Factor
iOS Compass Heading
iOS Angle

Next 30 passes for location: Hong Kong

Rise time Rise Azimuth (degrees) Set time Set Azimuth (degrees) Duration Max altitude (degrees)

No matching passes for this satellites